sat.trackr.live / text

‹ back to catalog

STARLINK-34801

NORAD 66076 · 2025-235U

PAYLOAD ACTIVE UNKNOWN

§ Identity

Operator
Country
US
Launch date
2025-10-19
Launch site
AFETR
Launch vehicle
Mass (kg)
RCS (m²)

Purposes: comms

External: N2YO · Heavens-Above · Gunter

§ Orbital elements

Epoch: 2026-05-25T00:12:09.979776Z

Period
94.11 min
Inclination
53.1597°
Eccentricity
0.0001158
Mean motion
15.30201496 rev/d
Perigee alt
474.4 km
Apogee alt
476.0 km
Semi-major
6,853.3 km
B*
6.5979e-4
RAAN
250.9607°
Arg perigee
84.1288°
Mean anomaly
275.9845°
Rev number
3,460

§ Raw data

STARLINK-348011 66076U 25235U   26145.00844884  .00019234  00000+0  65979-3 0  99932 66076  53.1597 250.9607 0001158  84.1288 275.9845 15.30201496 34606

JSON: /api/v1/satellites/66076 · /tle

For live sub-satellite position, see the globe view (requires WebGL).

§ Visibility from observer

Set your observer location to see the next 7 days of passes ≥ 10°. The values pass through the URL so the page stays shareable.

No JS? Fill the form by hand. The geolocation button needs JavaScript.